Shelbyville, IN

8:25 PM EDT on September 24, 2017 (GMT -0400)
Shelbyville Municipal

Weather History for KGEZ - October, 2014

Change the Weather History Date:

Tuesday, October 21, 2014

  Actual Average Record
Temperature  
Mean Temperature 52 °F 52 °F  
Max Temperature 58 °F 64 °F 78 °F (2007)
Min Temperature 46 °F 41 °F 28 °F (1999)
Degree Days  
Heating Degree Days 13 13  
Month to date heating degree days 180 209  
Since 1 July heating degree days 250 294  
Cooling Degree Days 0 0  
Month to date cooling degree days 12 11  
Year to date cooling degree days 1079 910  
Growing Degree Days 2 (Base 50)    
Moisture  
Dew Point 43 °F    
Average Humidity 69    
Maximum Humidity 86    
Minimum Humidity 51    
Precipitation  
Precipitation 0.00 in 0.10 in 0.88 in (2005)
Month to date precipitation 3.18 2.18  
Year to date precipitation 32.81 35.63  
Sea Level Pressure  
Sea Level Pressure 30.06 in    
Wind  
Wind Speed 8 mph (NNW)    
Max Wind Speed 18 mph    
Max Gust Speed 22 mph    
Visibility 10 miles    
Events      
T = Trace of Precipitation, MM = Missing Value Source: NWS Daily Summary

Daily Weather History Graph

Daily Weather History Graph

Search for Another Location

Airport or City:

Trip Planner

Search our weather history database for the weather conditions in past years. The results will help you decide how hot, cold, wet, or windy it might be!

Date:

Astronomy

Oct. 21, 2014 Rise Set
Actual Time 7:59 AM EDT 6:55 PM EDT
Civil Twilight 7:32 AM EDT 7:22 PM EDT
Nautical Twilight 7:00 AM EDT 7:54 PM EDT
Astronomical Twilight 6:29 AM EDT 8:25 PM EDT
Moon 5:43 AM EDT (10/21) 5:48 PM EDT (10/21)
Length of Visible Light 11h 50m
Length of Day
10h 55m
Waning Crescent, 5% of the Moon is Illuminated
Oct 21
Waning Crescent
Oct 23
New
Oct 30
First Quarter
Nov 6
Full
Nov 14
Last Quarter

Hourly Weather History & Observations

Time (EDT) Temp. Dew Point Humidity Pressure Visibility Wind Dir Wind Speed Gust Speed Precip Events Conditions
12:53 AM 53.1 °F 46.0 °F 77% 29.94 in 10.0 mi NNW 5.8 mph - N/A   Mostly Cloudy
1:53 AM 51.1 °F 45.0 °F 80% 29.95 in 10.0 mi NW 5.8 mph - N/A   Scattered Clouds
2:53 AM 48.9 °F 45.0 °F 86% 29.96 in 10.0 mi NW 6.9 mph - N/A   Partly Cloudy
3:53 AM 48.9 °F 45.0 °F 86% 29.96 in 10.0 mi NNW 6.9 mph - N/A   Partly Cloudy
4:53 AM 48.9 °F 45.0 °F 86% 29.97 in 10.0 mi NNW 8.1 mph - N/A   Mostly Cloudy
5:53 AM 48.0 °F 45.0 °F 89% 29.99 in 10.0 mi NW 5.8 mph - N/A   Overcast
6:53 AM 48.9 °F 45.0 °F 86% 30.00 in 10.0 mi NW 5.8 mph - N/A   Overcast
7:53 AM 50.0 °F 45.0 °F 83% 30.02 in 10.0 mi NW 5.8 mph - N/A   Overcast
8:53 AM 50.0 °F 46.0 °F 86% 30.04 in 10.0 mi NW 5.8 mph - N/A   Overcast
9:53 AM 52.0 °F 45.0 °F 77% 30.06 in 10.0 mi NNW 9.2 mph - N/A   Overcast
10:53 AM 53.1 °F 44.1 °F 71% 30.07 in 10.0 mi NNW 10.4 mph - N/A   Overcast
11:53 AM 55.0 °F 42.1 °F 62% 30.07 in 10.0 mi NNW 15.0 mph - N/A   Overcast
12:53 PM 57.0 °F 41.0 °F 55% 30.08 in 10.0 mi NNW 12.7 mph - N/A   Overcast
1:53 PM 57.0 °F 39.9 °F 53% 30.07 in 10.0 mi NNW 11.5 mph - N/A   Overcast
2:53 PM 57.0 °F 39.9 °F 53% 30.07 in 10.0 mi NNW 13.8 mph - N/A   Overcast
3:53 PM 57.0 °F 41.0 °F 55% 30.08 in 10.0 mi North 12.7 mph - N/A   Mostly Cloudy
4:53 PM 57.0 °F 41.0 °F 55% 30.09 in 10.0 mi North 16.1 mph 20.7 mph N/A   Overcast
5:53 PM 55.9 °F 42.1 °F 60% 30.11 in 10.0 mi North 10.4 mph - N/A   Overcast
6:53 PM 55.0 °F 42.1 °F 62% 30.13 in 10.0 mi North 4.6 mph - N/A   Overcast
7:53 PM 50.0 °F 41.0 °F 71% 30.14 in 10.0 mi North 3.5 mph - N/A   Partly Cloudy
8:53 PM 46.9 °F 39.9 °F 77% 30.16 in 10.0 mi North 3.5 mph - N/A   Clear
9:53 PM 48.9 °F 41.0 °F 74% 30.18 in 10.0 mi NNE 5.8 mph - N/A   Overcast
10:53 PM 48.9 °F 41.0 °F 74% 30.19 in 10.0 mi NNE 9.2 mph - N/A   Mostly Cloudy
11:53 PM 48.0 °F 39.0 °F 71% 30.20 in 10.0 mi NE 5.8 mph - N/A   Overcast